Content
SEND FEEDBACK

Daily
Averages
Monthly
Summary
Canada

QUEBEC CITY, QUEBEC


Home > North America > Canada > Quebec
Elevation: 72 meters     Latitude: 46 48N     Longitude: 071 23W

WEATHER
 
SELECT A DAY
Number of Records: 198,140;   Date Range: 6/30/96 - 12/20/14
 
SHARE

PRINT THIS DATA

[ ← Previous Day ]
WEATHER ALMANAC - 26 MARCH, 2013
[ Next Day → ]
[ °F ]   °C
Weather ElementAverageHighLow
Temperature1.5 °C7.2 °C (5:00 pm)-4.4 °C (2:00 am)
Dewpoint-5.3 °C-0.6 °C (8:00 pm) (7:00 pm)
Humidity69.1 %96 % (11:00 pm)32 % (5:00 pm)
Barometer891.6 hPa1008.1 hPa (9:00 pm) (7:00 pm)
Wind Speed8.2 km/h20.4 km/h (3:00 pm)
Weather ElementAverage
Visibility27.2 km
Wind DirectionSSE (149.7 °)

Weather ElementTotal
Precipitation---
Heating Degree Days16.9 (Base 18.3)
Averaged from 35 records on 26 March, 2013
WEATHER CONDITIONS BREAKOUT
WIND DIRECTION BREAKOUT
WEATHER BY HOUR - 26 MARCH, 2013
[ °F ]   °C
Local TimeTemperatureDewpointHumidityBarometerVisibilityWind DirectionWind SpeedGust SpeedPrecipitationEventsConditions
1:00 AM-3 °C-5 °C86 %1007.5 hPa24.1 kmCalmScattered Clouds
2:00 AM-4.4 °C-5.6 °C88 %1007.1 hPaNorth3.7 km/h
2:00 AM-2 °C-6 °C74 %1007.1 hPa24.1 kmNorth (10°)7.4 km/hScattered Clouds
3:00 AM-2 °C-7 °C69 %1006.8 hPa24.1 kmNE (40°)7.4 km/hPartly Cloudy
4:00 AM-2 °C-7 °C69 %1006.8 hPa24.1 kmNorth (10°)9.3 km/hPartly Cloudy
5:00 AM-3.9 °C-6.7 °C74 %1006.8 hPaEast (80°)5.6 km/h
5:00 AM-2 °C-6 °C74 %1006.8 hPa24.1 kmENE (60°)5.6 km/hScattered Clouds
6:00 AM-2 °C-6 °C74 %1007.1 hPa24.1 kmNorth (360°)3.7 km/hMostly Cloudy
7:00 AM-3 °C-6 °C80 %1007.1 hPa40.2 kmWSW (250°)3.7 km/hMostly Cloudy
8:00 AM-2.2 °C-5 °C76 %1007.1 hPaCalm
8:00 AM-1 °C-6 °C69 %1007.5 hPa40.2 kmSW (220°)7.4 km/hMostly Cloudy
9:00 AM0 °C-4 °C75 %1007.1 hPa32.2 kmSW (220°)9.3 km/hMostly Cloudy
10:00 AM1 °C-4 °C70 %1007.1 hPa32.2 kmSouth (180°)9.3 km/hMostly Cloudy
11:00 AM2.8 °C-2.8 °C55 %1006.4 hPaSouth (190°)13 km/h
11:00 AM2 °C-3 °C70 %1007.1 hPa32.2 kmSouth (170°)13 km/hMostly Cloudy
12:00 PM4 °C-4 °C56 %1006.8 hPa32.2 kmSSW (200°)9.3 km/hMostly Cloudy
1:00 PM5 °C-4 °C53 %1006.4 hPa32.2 kmSouth (190°)16.7 km/hMostly Cloudy
1:32 PM5 °C-17.8 °C24.1 kmSouth (180°)11.1 km/hRainLight Rain Showers
2:00 PM5 °C-1.7 °C50 %1005.4 hPaSouth (180°)7.4 km/h
2:00 PM5 °C-4 °C53 %1006.4 hPa24.1 kmSouth (190°)13 km/hRainLight Rain Showers
2:24 PM5 °C-17.8 °C24.1 kmSouth (170°)13 km/hMostly Cloudy
2:26 PM5 °C-17.8 °C24.1 kmSouth (170°)13 km/hMostly Cloudy
3:00 PM5 °C-3 °C57 %1005.8 hPa24.1 kmSW (220°)20.4 km/hMostly Cloudy
4:00 PM6 °C-2 °C57 %1005.8 hPa24.1 kmCalmMostly Cloudy
5:00 PM7.2 °C-3.9 °C32 %1005.1 hPaNNW (330°)13 km/h
5:00 PM7 °C-4 °C46 %1005.8 hPa24.1 kmNW (310°)9.3 km/hMostly Cloudy
6:00 PM4 °C-1 °C70 %1006.4 hPa32.2 kmENE (60°)9.3 km/hMostly Cloudy
7:00 PM4 °C-1 °C70 %1006.8 hPa24.1 kmENE (70°)9.3 km/hMostly Cloudy
8:00 PM2.2 °C-0.6 °C75 %1007.5 hPaENE (70°)7.4 km/h
8:00 PM3 °C-1 °C75 %1007.8 hPa24.1 kmENE (60°)9.3 km/hMostly Cloudy
9:00 PM2 °C-1 °C81 %1008.1 hPa24.1 kmNNE (20°)5.6 km/hMostly Cloudy
10:00 PM2 °C-1 °C81 %1007.8 hPa24.1 kmENE (70°)5.6 km/hPartly Cloudy
10:40 PM0 °C-17.8 °C24.1 kmWest (270°)3.7 km/hPartly Cloudy
11:00 PM-1.7 °C-2.2 °C96 %1007.5 hPaWest (270°)5.6 km/h
11:00 PM0 °C-2 °C87 %1007.8 hPa24.1 kmWest (270°)5.6 km/hPartly Cloudy
Hourly data recorded from CYQB, located 0 kilometers away from Quebec City, Quebec







STORIES FROM OUR PARTNERS